DECAYED

DMSP 5D-2 F13 DEB, 40475 (Decayed)

Orbit data source: Space-Track

DMSP 5D-2 F13 DEB, 40475 was space debris in SSO originally from a launch on Fri, 24 Mar 1995 UTC launched from the Air Force Western Test Range (AFWTR). Debris objects in space refer to the collection of defunct objects orbiting the Earth. Examples of debris include non-operational satellites, rocket bodies, and fragments generated from explosions, collisions, or faulty payload assembly.

Not visible in the next 10 days
Identifier
40475, 1995-015BT
Orbit
Decayed
Last TLE update
8 months ago
Origin
Manufacturer
Unknown
Mission
Decayed spacecraft
Bus & Motor
Unknown
Mass
Unknown
Launch date (UTC)
1995-03-24 (30 years ago)
Launch vehicle
Unknown
Launch site
Air Force Western Test Range (AFWTR)
Object type
Payload
Rocket body
Debris
Shape & HBR
Unknown
Radar Cross Section
Small (<0.1 m²)

Expand to show TLE details & history

TLE from 8 months ago
0 DMSP 5D-2 F13 DEB
1 40475U 95015BT  24314.82187157  .00132684  00000-0  42294-1 0  9999
2 40475  98.9540 326.6159 0034606 264.6181  95.1056 14.38496530498499
Epoch: 2024-11-09T19:43Z
TLE epoch observation values (Epoch: 2024-11-09T19:43:29.703Z)
Latitude
-0.00007°
Longitude
-18.72818°
Altitude
768.687 km
Speed
7.469 km/s
True Right ascension
21h 46m 27s
True Declination
0° 00' 00"
Sunlit
Object was in daylight at epoch
Visualization orbit readout
Visualization observer readout
Orbital elements
Apogee altitude
785.32 km
Perigee altitude
735.912 km
Semi-major axis
7,138.753 km
Eccentricity
0.00346
Inclination
98.954°
RAAN
326.6159°
Arg. of periapsis
264.6181°
True anomaly
Unknown
Mean anomaly
95.1056°
Eccentric anomaly
Unknown
Mean motion
3.5984 °/min
Orbital period
100.04 mins
BSTAR
0.042294
Loading maneuver chart data...
Loading SW <> Apogee altitude chart data...

DMSP 5D-2 F13 DEB Visibility

Observer location: undefined°, undefined°

This satellite is decayed
Span
Click to sort rows by Start time (UTC) header in descending order
Start Az.
Max El. time (UTC)
Max El. Az.
Max El.
End time (UTC)
End Az.
|